Total_Precipitation_Accumulation
0.02 0.07 0.22 0.44 0.69 1.12 1.30 0.86 0.63 0.59 0.49 0.46 0.43 0.36 0.40 0.49 0.56 0.90 0.58 0.27 0.12 0.09 0.09 0.15 0.20 0.15 0.13 0.16 0.20 0.24 0.23 0.20 0.19 0.20 0.21 0.19 0.20 0.22 0.28 0.38 0.51 0.56 0.51 0.46 0.48 0.41 0.37 0.35 0.31
0.02 0.09 0.25 0.51 0.98 1.54 1.28 0.67 0.53 0.56 0.44 0.45 0.47 0.44 0.45 0.49 0.41 0.33 0.36 0.28 0.13 0.10 0.11 0.13 0.17 0.18 0.15 0.16 0.20 0.23 0.24 0.23 0.23 0.24 0.21 0.20 0.22 0.24 0.27 0.35 0.44 0.49 0.45 0.41 0.33 0.30 0.28 0.23 0.18
0.06 0.14 0.26 0.49 0.94 1.33 0.97 0.55 0.41 0.42 0.40 0.51 0.63 0.56 0.57 0.56 0.47 0.42 0.39 0.26 0.17 0.13 0.11 0.17 0.20 0.22 0.20 0.17 0.20 0.23 0.26 0.27 0.27 0.25 0.23 0.22 0.23 0.24 0.24 0.26 0.31 0.33 0.30 0.28 0.26 0.26 0.23 0.19 0.14
0.06 0.19 0.31 0.44 0.59 0.55 0.54 0.52 0.38 0.46 0.57 0.56 0.63 0.73 0.65 0.51 0.47 0.53 0.52 0.38 0.24 0.20 0.16 0.20 0.24 0.24 0.25 0.23 0.23 0.26 0.27 0.28 0.26 0.25 0.24 0.22 0.25 0.27 0.25 0.25 0.28 0.31 0.31 0.28 0.28 0.27 0.24 0.20 0.17
0.07 0.19 0.32 0.40 0.46 0.39 0.41 0.44 0.39 0.46 0.51 0.55 0.59 0.86 0.84 0.65 0.55 0.55 0.51 0.49 0.33 0.39 0.32 0.31 0.34 0.32 0.30 0.26 0.25 0.25 0.26 0.29 0.26 0.25 0.25 0.23 0.25 0.25 0.24 0.24 0.24 0.25 0.29 0.29 0.28 0.27 0.23 0.26 0.25
0.07 0.17 0.31 0.32 0.34 0.31 0.35 0.40 0.40 0.46 0.52 0.64 0.75 1.02 1.00 0.80 0.77 0.76 0.76 0.66 0.47 0.53 0.50 0.42 0.41 0.38 0.36 0.31 0.31 0.32 0.29 0.29 0.30 0.29 0.26 0.23 0.22 0.22 0.22 0.23 0.20 0.18 0.20 0.23 0.26 0.29 0.27 0.27 0.30
0.04 0.11 0.20 0.21 0.20 0.27 0.30 0.29 0.36 0.54 0.75 0.85 0.96 1.17 1.07 1.17 1.13 1.06 1.09 0.96 0.72 0.65 0.61 0.51 0.44 0.39 0.39 0.38 0.38 0.39 0.37 0.35 0.33 0.31 0.27 0.23 0.21 0.20 0.21 0.22 0.21 0.18 0.18 0.19 0.21 0.23 0.24 0.23 0.27
0.03 0.06 0.11 0.16 0.16 0.23 0.24 0.24 0.27 0.41 0.77 0.87 0.91 1.02 1.27 1.17 1.18 1.45 1.43 1.36 1.11 0.98 0.76 0.63 0.60 0.57 0.52 0.47 0.44 0.46 0.41 0.40 0.41 0.37 0.34 0.32 0.30 0.26 0.29 0.27 0.26 0.26 0.26 0.23 0.21 0.23 0.24 0.25 0.26
0.03 0.08 0.09 0.10 0.13 0.16 0.17 0.22 0.25 0.37 0.54 0.76 0.95 0.89 1.00 0.93 1.04 1.41 1.64 1.79 1.66 1.32 1.08 0.87 0.78 0.74 0.69 0.61 0.55 0.59 0.57 0.54 0.54 0.52 0.50 0.46 0.45 0.47 0.50 0.44 0.47 0.45 0.45 0.46 0.44 0.45 0.45 0.43 0.35
0.02 0.06 0.07 0.06 0.10 0.13 0.11 0.14 0.17 0.39 0.82 1.16 1.25 1.03 1.01 1.09 1.38 1.66 1.76 1.80 1.87 1.48 1.18 1.09 1.01 0.88 0.79 0.68 0.75 0.91 0.82 0.77 0.76 0.82 0.78 0.77 0.82 0.78 0.60 0.63 0.80 0.94 0.98 0.95 1.03 1.13 0.93 0.74 0.76
0.01 0.02 0.05 0.06 0.07 0.06 0.06 0.09 0.17 0.35 0.82 1.15 1.28 1.20 1.31 1.35 1.62 1.93 2.05 1.86 1.88 1.76 1.44 1.33 1.23 1.12 1.09 1.15 1.06 1.08 1.07 1.09 1.05 1.09 1.13 1.14 1.02 0.88 0.84 0.94 1.15 1.34 1.40 1.38 1.68 1.74 1.27 1.34 1.65
0.00 0.01 0.03 0.05 0.06 0.04 0.04 0.09 0.25 0.41 0.65 0.93 1.02 1.48 1.68 1.59 1.85 1.98 2.07 2.14 2.13 2.08 1.78 1.58 1.49 1.47 1.46 1.42 1.36 1.25 1.26 1.28 1.30 1.38 1.39 1.49 1.55 1.45 1.42 1.49 1.54 1.71 1.82 2.04 2.17 2.27 1.98 1.95 1.85
0.01 0.01 0.02 0.03 0.05 0.06 0.08 0.14 0.21 0.47 0.62 0.82 1.02 1.41 1.61 1.51 1.82 2.05 2.30 2.37 2.42 2.22 1.96 1.91 1.71 1.61 1.63 1.73 1.78 1.61 1.68 1.63 1.59 1.69 1.77 1.85 2.03 2.02 1.98 1.87 1.87 1.81 2.00 2.21 2.50 2.43 2.67 2.61 2.32
0.01 0.02 0.03 0.04 0.06 0.10 0.24 0.33 0.32 0.58 0.66 0.84 1.08 1.47 1.56 1.49 1.59 1.58 1.90 2.22 2.37 2.18 2.03 2.00 1.88 1.94 2.03 2.01 2.04 2.10 2.11 2.07 2.01 1.97 2.01 2.06 2.26 2.47 2.39 2.18 2.16 2.05 2.11 2.42 2.66 2.68 3.07 2.89 2.73
0.02 0.06 0.08 0.08 0.12 0.19 0.30 0.49 0.52 0.65 0.71 0.98 1.04 1.25 1.40 1.37 1.44 1.55 1.74 1.98 2.07 1.94 2.07 2.23 2.35 2.52 2.65 2.64 2.59 2.51 2.55 2.45 2.44 2.56 2.56 2.58 2.57 2.60 2.47 2.33 2.24 2.35 2.48 2.65 2.69 2.79 3.11 2.85 2.74
0.03 0.12 0.20 0.21 0.20 0.26 0.44 0.88 0.81 0.85 0.82 0.90 0.96 1.12 1.24 1.26 1.38 1.64 1.75 1.87 2.01 1.96 2.09 2.33 2.44 2.79 2.99 3.03 3.09 3.04 2.99 2.84 2.89 2.88 2.88 2.85 2.76 2.64 2.68 2.45 2.26 2.49 2.63 2.79 2.95 2.92 2.99 3.01 2.97
0.07 0.14 0.22 0.26 0.19 0.20 0.37 0.71 0.67 0.75 0.93 0.89 0.91 0.97 1.04 1.09 1.18 1.36 1.57 1.69 1.95 2.26 2.47 2.81 2.89 2.85 2.94 3.12 3.26 3.09 3.04 2.93 2.84 2.75 2.75 2.65 2.56 2.54 2.80 2.60 2.57 2.70 2.90 2.80 2.61 2.96 3.08 3.03 3.02
0.06 0.13 0.18 0.23 0.22 0.19 0.32 0.51 0.59 0.69 0.84 0.95 0.94 1.02 1.10 1.20 1.41 1.59 1.81 1.94 2.10 2.51 2.82 2.97 3.04 3.27 3.55 3.74 3.65 3.40 3.06 2.82 2.70 2.59 2.47 2.43 2.49 2.52 2.76 2.57 2.60 2.79 2.98 3.03 3.02 3.10 3.07 2.94 3.00
0.05 0.12 0.15 0.18 0.23 0.25 0.35 0.42 0.68 0.89 1.01 1.14 1.28 1.48 1.61 1.80 1.91 2.04 2.26 2.40 2.44 2.49 2.71 2.96 3.30 3.67 3.77 3.68 3.64 3.55 3.23 2.95 2.62 2.33 2.29 2.37 2.32 2.42 2.68 2.44 2.73 2.87 2.90 3.01 3.05 3.18 3.07 2.91 3.07
0.06 0.12 0.17 0.20 0.26 0.25 0.41 0.51 0.73 1.10 1.23 1.19 1.23 1.27 1.31 1.66 1.90 2.12 2.31 2.38 2.30 2.41 2.68 3.04 3.32 3.65 3.61 3.74 3.90 3.78 3.50 2.94 2.58 2.35 2.26 2.28 2.28 2.30 2.44 2.72 2.77 2.85 2.92 2.93 2.88 2.90 2.73 2.55 2.89
0.08 0.11 0.16 0.21 0.32 0.29 0.40 0.73 0.93 1.20 1.32 1.22 1.19 1.20 1.12 1.29 1.56 1.72 1.84 1.97 2.19 2.53 2.92 3.16 3.37 3.47 3.50 3.64 3.71 3.38 3.14 2.72 2.57 2.52 2.37 2.28 2.36 2.40 2.50 2.67 2.75 2.67 2.60 2.66 2.75 2.66 2.53 2.36 2.50
0.10 0.09 0.09 0.15 0.26 0.40 0.49 1.03 1.32 1.50 1.37 1.12 1.17 1.22 1.29 1.37 1.42 1.51 1.62 1.90 2.23 2.55 2.96 3.34 3.32 3.29 3.24 3.36 3.43 3.21 2.89 2.63 2.52 2.49 2.26 2.11 2.08 2.12 2.22 2.30 2.45 2.50 2.48 2.47 2.42 2.41 2.42 2.37 2.25
0.07 0.07 0.07 0.13 0.21 0.38 0.55 0.95 1.37 1.44 1.32 1.07 1.01 1.19 1.39 1.33 1.30 1.40 1.51 1.74 1.93 2.23 2.54 2.89 3.13 3.15 3.03 3.02 3.03 2.97 2.74 2.47 2.31 2.24 2.11 2.04 2.04 1.93 1.92 2.03 2.20 2.25 2.17 2.17 2.29 2.47 2.44 2.30 2.17
0.05 0.07 0.11 0.21 0.38 0.68 0.55 0.69 1.11 1.32 1.19 0.96 0.95 1.10 1.25 1.39 1.39 1.44 1.64 1.77 1.83 2.01 2.28 2.48 2.66 2.73 2.67 2.60 2.60 2.61 2.50 2.41 2.22 2.07 2.08 2.09 2.00 1.85 1.79 1.80 1.91 1.96 1.95 1.93 1.97 2.09 2.13 2.11 2.20
0.07 0.15 0.44 0.77 1.06 0.95 0.61 0.72 1.07 1.00 0.84 0.75 0.82 1.05 1.28 1.50 1.47 1.52 1.68 1.76 1.82 1.86 1.94 2.01 2.07 2.16 2.10 2.04 2.03 2.06 2.05 2.04 1.93 1.88 1.93 1.97 1.89 1.78 1.73 1.66 1.61 1.60 1.63 1.71 1.88 1.91 1.92 2.00 2.11
0.10 0.19 0.53 0.70 0.83 0.82 0.77 1.00 1.07 0.83 0.71 0.70 0.76 0.92 1.17 1.31 1.33 1.40 1.46 1.38 1.32 1.34 1.41 1.48 1.50 1.53 1.51 1.55 1.63 1.66 1.76 1.76 1.71 1.78 1.78 1.81 1.78 1.72 1.60 1.46 1.40 1.37 1.39 1.48 1.67 1.85 1.85 1.94 1.99
0.19 0.24 0.25 0.42 0.50 0.80 0.98 1.12 1.04 0.76 0.86 0.85 0.91 0.95 1.00 1.02 1.01 0.99 0.98 1.01 1.06 1.08 1.10 1.11 1.15 1.17 1.12 1.14 1.26 1.34 1.41 1.45 1.47 1.55 1.56 1.51 1.49 1.41 1.38 1.34 1.32 1.26 1.28 1.33 1.37 1.51 1.53 1.61 1.67
0.20 0.32 0.44 0.64 0.82 0.94 0.98 1.25 1.40 1.25 1.17 1.06 1.16 1.37 1.18 0.91 0.86 0.83 0.77 0.77 0.79 0.80 0.89 0.96 1.03 1.12 1.09 1.02 1.02 1.02 1.10 1.13 1.25 1.30 1.29 1.32 1.35 1.31 1.24 1.24 1.23 1.17 1.14 1.16 1.20 1.25 1.30 1.29 1.33
0.32 0.40 0.49 0.62 0.71 0.90 1.05 1.18 1.06 1.18 1.14 1.11 1.16 1.21 1.03 0.73 0.61 0.62 0.54 0.53 0.58 0.67 0.76 0.81 0.93 1.02 0.98 0.87 0.86 0.89 0.90 0.94 1.01 1.08 1.07 1.12 1.18 1.25 1.24 1.20 1.16 1.05 0.98 0.97 1.00 1.02 1.12 1.14 1.13
0.27 0.40 0.51 0.67 0.74 0.79 0.93 1.03 0.67 0.80 0.82 0.83 0.90 0.79 0.67 0.54 0.44 0.53 0.50 0.42 0.45 0.50 0.54 0.61 0.71 0.82 0.85 0.82 0.83 0.88 0.90 0.89 0.89 0.92 0.90 0.92 0.98 0.99 0.99 0.98 1.04 1.06 1.04 1.01 1.00 0.97 0.96 1.02 1.04